Richmond, VA

9:12 PM EST on December 15, 2019 (GMT -0500)
Richmond International

Weather History for KRIC - October, 2019

Change the Weather History Date:

Wednesday, October 2, 2019

  Actual Average Record
Temperature  
Mean Temperature 84 °F 64 °F  
Max Temperature 97 °F 75 °F 91 °F (1986)
Min Temperature 69 °F 54 °F 33 °F (1947)
Degree Days  
Heating Degree Days 0 3  
Month to date heating degree days 0 6  
Since 1 July heating degree days 0 35  
Cooling Degree Days 18 3  
Month to date cooling degree days 33 6  
Year to date cooling degree days 2003 1510  
Growing Degree Days 34 (Base 50)    
Moisture  
Dew Point 64 °F    
Average Humidity 60    
Maximum Humidity 90    
Minimum Humidity 27    
Precipitation  
Precipitation 0.00 in 0.09 in 2.38 in (1890)
Month to date precipitation 0.00 0.19  
Year to date precipitation 33.15 34.31  
Snow  
Snow 0.00 in 0.00 in 0.00 in (2002)
Month to date snowfall 0.0 0.0  
Since 1 July snowfall 0.0 0.0  
Snow Depth 0.00 in    
Sea Level Pressure  
Sea Level Pressure 29.94 in    
Wind  
Wind Speed 6 mph ()    
Max Wind Speed 14 mph    
Max Gust Speed 24 mph    
Visibility 10.0 miles    
Events      
T = Trace of Precipitation, MM = Missing Value Source: Averaged Metar Reports

Daily Weather History Graph

Daily Weather History Graph

Search for Another Location

Airport or City:

Astronomy

Oct. 02, 2019 Rise Set
Actual Time 7:05 AM EDT 6:51 PM EDT
Civil Twilight 6:39 AM EDT 7:17 PM EDT
Nautical Twilight 6:09 AM EDT 7:47 PM EDT
Astronomical Twilight 5:38 AM EDT 8:18 PM EDT
Moon 11:23 AM EDT (10/2) 9:49 PM EDT (10/2)
Length of Visible Light 12h 37m
Length of Day
11h 45m
Waxing Crescent, 20% of the Moon is Illuminated
Oct 2
Waxing Crescent
Oct 5
First Quarter
Oct 13
Full
Oct 21
Last Quarter
Oct 27
New

Hourly Weather History & Observations

Time (EDT) Temp. Heat Index Dew Point Humidity Pressure Visibility Wind Dir Wind Speed Gust Speed Precip Events Conditions
12:54 AM 73.9 °F - 66.0 °F 76% 30.00 in 10.0 mi South 6.9 mph - N/A   Mostly Cloudy
1:54 AM 73.0 °F - 66.0 °F 79% 29.99 in 10.0 mi South 8.1 mph - N/A   Scattered Clouds
2:54 AM 72.0 °F - 66.0 °F 81% 29.98 in 10.0 mi SSW 6.9 mph - N/A   Scattered Clouds
3:54 AM 71.1 °F - 66.0 °F 84% 29.97 in 10.0 mi SSW 5.8 mph - N/A   Scattered Clouds
4:54 AM 70.0 °F - 66.0 °F 87% 29.97 in 10.0 mi SSW 6.9 mph - N/A   Scattered Clouds
5:54 AM 70.0 °F - 66.0 °F 87% 29.98 in 10.0 mi SSW 6.9 mph - N/A   Partly Cloudy
6:54 AM 69.1 °F - 66.0 °F 90% 29.99 in 10.0 mi South 6.9 mph - N/A   Partly Cloudy
7:54 AM 72.0 °F - 66.9 °F 84% 29.99 in 10.0 mi SSW 5.8 mph - N/A   Mostly Cloudy
8:54 AM 75.9 °F - 68.0 °F 76% 29.99 in 10.0 mi SW 9.2 mph - N/A   Mostly Cloudy
9:54 AM 80.1 °F 83.2 °F 70.0 °F 71% 29.99 in 10.0 mi WSW 6.9 mph - N/A   Mostly Cloudy
10:54 AM 86.0 °F 90.7 °F 70.0 °F 59% 29.97 in 10.0 mi WSW 5.8 mph - N/A   Scattered Clouds
11:54 AM 88.0 °F 92.1 °F 69.1 °F 53% 29.95 in 10.0 mi West 5.8 mph - N/A   Scattered Clouds
12:54 PM 93.0 °F 94.6 °F 64.0 °F 38% 29.94 in 10.0 mi West 5.8 mph - N/A   Scattered Clouds
1:54 PM 97.0 °F 96.5 °F 59.0 °F 28% 29.91 in 10.0 mi West 10.4 mph 24.2 mph N/A   Mostly Cloudy
2:54 PM 96.1 °F 95.2 °F 57.9 °F 28% 29.89 in 10.0 mi NW 9.2 mph - N/A   Mostly Cloudy
3:54 PM 95.0 °F 94.4 °F 59.0 °F 30% 29.88 in 10.0 mi NNW 5.8 mph - N/A   Mostly Cloudy
4:54 PM 93.9 °F 93.6 °F 60.1 °F 32% 29.86 in 10.0 mi West 6.9 mph - N/A   Mostly Cloudy
5:54 PM 93.9 °F 92.9 °F 57.9 °F 30% 29.86 in 10.0 mi West 9.2 mph - N/A   Scattered Clouds
6:54 PM 91.9 °F 92.5 °F 62.1 °F 37% 29.87 in 10.0 mi WNW 5.8 mph - N/A   Scattered Clouds
7:54 PM 84.9 °F 85.9 °F 63.0 °F 48% 29.88 in 10.0 mi SSE 3.5 mph - N/A   Scattered Clouds
8:54 PM 87.1 °F 88.3 °F 64.0 °F 46% 29.90 in 10.0 mi WSW 4.6 mph - N/A   Scattered Clouds
9:54 PM 79.0 °F - 64.9 °F 62% 29.91 in 10.0 mi SSW 3.5 mph - N/A   Partly Cloudy
10:54 PM 78.1 °F - 64.9 °F 64% 29.92 in 10.0 mi Calm Calm - N/A   Partly Cloudy
11:54 PM 75.0 °F - 64.9 °F 71% 29.92 in 10.0 mi Calm Calm - N/A   Clear